User: anonymous   Login
Location: Azul
(36.7830°S, 59.8500°W)
Time: 09:19:41
(UTC-03:00)
Language:

NOAA 18 - Orbit

View from above orbital plane
View from above orbital plane
View from above satellite
View from above satellite

Ground track
Ground track

The orbit data is extracted from the following two-line orbital elements,

1 28654U 05018A   21295.08859340  .00000108  00000-0  82584-4 0  9995
2 28654  98.9809   0.3765 0013271 285.4185  74.5520 14.12648797846413
Epoch (UTC): 22 October 2021 02:07:34
Eccentricity: 0.0013271
inclination: 98.9809°
perigee height: 841 km
apogee height: 860 km
right ascension of ascending node: 0.3765°
argument of perigee: 285.4185°
revolutions per day: 14.12648797
mean anomaly at epoch: 74.5520°
orbit number at epoch: 84641

The dashed part of the orbit path shows where the satellite is in the earth's shadow,  

DLR